{"data":{"norad_id":53845,"intl_designator":"2022-114AD","name":"STARLINK-4753","alt_names":[],"object_type":"PAYLOAD","status":"ACTIVE","operator":null,"country":"US","launch_date":"2022-09-19","launch_site_code":"AFETR","launch_vehicle":null,"mission":null,"orbit_class":"UNKNOWN","rcs_meters":null,"size_class":null,"mass_kg":null,"dimensions":null,"purposes":["comms"],"wikipedia_slug":null,"has_3d_model":false,"image_url":null,"decayed_at":null,"tle_current":{"epoch":"2026-09-20T22:00:03.000096Z","epoch_age_seconds":48477,"freshness":"FRESH","line1":"1 53845U 22114AD  26263.91670139  .00022799  00000+0  11816-2 0  9997","line2":"2 53845  53.1608 136.7698 0001482 171.5947   5.2056 15.16106014  5805","mean_motion":15.16106014,"eccentricity":0.0001482,"inclination_deg":53.1608,"raan_deg":136.7698,"arg_perigee_deg":171.5947,"mean_anomaly_deg":5.2056,"bstar":0.0011816,"rev_number":580,"period_min":94.980165417377,"perigee_km":516.60088599082,"apogee_km":518.64478920669,"semimajor_km":6895.7598375988,"source":"CELESTRAK","updated_at":"2026-09-21T09:00:33.021959Z"}}}